This is the latest recevied weather packets stored in our database for station/object SP2WPY-13. If no packets are shown the sender has not sent any weather packets the latest 10 day(s).
| Time | Temp. | Humidity | Pressure | Rain* | Wind** | Luminosity | Snow |
|---|---|---|---|---|---|---|---|
| 1777613168 | 14.44° C | 51% | 1029.3 hPa | - | - | - | - |
| 1777612894 | 14.44° C | 55% | 1029.3 hPa | - | - | - | - |
| 1777612574 | 13.89° C | 56% | 1029.3 hPa | - | - | - | - |
| 1777612301 | 13.33° C | 56% | 1029.3 hPa | - | - | - | - |
| 1777611980 | 12.78° C | 61% | 1029.4 hPa | - | - | - | - |
| 1777611661 | 12.22° C | 64% | 1029.4 hPa | - | - | - | - |
| 1777611388 | 11.11° C | 65% | 1029.4 hPa | - | - | - | - |
| 1777611067 | 11.11° C | 66% | 1029.4 hPa | - | - | - | - |
| 1777610794 | 10.56° C | 69% | 1029.4 hPa | - | - | - | - |
| 1777610474 | 10° C | 70% | 1029.4 hPa | - | - | - | - |
| 1777610200 | 10° C | 72% | 1029.4 hPa | - | - | - | - |
| 1777609881 | 9.44° C | 73% | 1029.4 hPa | - | - | - | - |
| 1777609606 | 9.44° C | 75% | 1029.3 hPa | - | - | - | - |
| 1777609287 | 8.89° C | 76% | 1029.4 hPa | - | - | - | - |
| 1777608967 | 8.33° C | 78% | 1029.3 hPa | - | - | - | - |
| 1777608693 | 8.33° C | 79% | 1029.4 hPa | - | - | - | - |
| 1777608373 | 8.33° C | 80% | 1029.3 hPa | - | - | - | - |
| 1777608099 | 7.78° C | 81% | 1029.3 hPa | - | - | - | - |
| 1777607779 | 7.78° C | 82% | 1029.3 hPa | - | - | - | - |
| 1777607505 | 7.78° C | 83% | 1029.3 hPa | - | - | - | - |
| 1777607186 | 7.22° C | 84% | 1029.3 hPa | - | - | - | - |
| 1777606866 | 7.22° C | 85% | 1029.3 hPa | - | - | - | - |
| 1777606592 | 7.22° C | 86% | 1029.3 hPa | - | - | - | - |
| 1777606273 | 6.67° C | 86% | 1029.3 hPa | - | - | - | - |
| 1777605998 | 6.67° C | 87% | 1029.3 hPa | - | - | - | - |
* Rain since midnight (hover to see other rain measurements)
** Current wind speed in m/s (hover to see current wind gust speed)